Weather in Guimarães

Portugal     41°26′34″N   8°17′49″W
temp.,
°C
wind,
m/s
gust,
m/s
humid.,
%
clouds,
%
prec.,
mm/h
press.,
hPa
HPBL,
m
13 april, tue
tue1301:00+11ene2364100 0.2 102283
04:00+10e2259100 0.1 102159
07:00+8ene3589100 1.4 1021155
10:00+10e2479100 0.4 1021294
13:00+13e2371100 0.5 1021413
16:00+15ne126899 0.2 1019460
19:00+16n117197 0.2 1019125
22:00+13ene2276100 0.0 102037
14 april, wed
wed1401:00+12e2375100 0.1 101984
04:00+12e237690 0.0 101790
07:00+10e238532 0.0 101755
10:00+16e2461100 0.0 1017426
13:00+20ese3446100 0.0 10151576
16:00+22ese3342100 0.0 10131917
19:00+19ne2260100 0.0 101344
22:00+14ene3369100 0.0 101456
15 april, thu
thu1501:00+13ene3668100 0.0 1014115
04:00+11ene3572100 0.0 1014115
07:00+10ene357221 0.0 1015103
10:00+16e474735 0.0 1015609
13:00+21e34405 0.0 10141455
16:00+23se133646 0.0 10132254
19:00
22:00+14s117513 0.0 101628
16 april, fri
fri1601:00+12e21838 0.0 101615
04:00+11e228177 0.0 101519
07:00+9e2368100 0.0 101662
10:00+15e234478 0.0 1016431
13:00+20e12415 0.0 10161330
16:00+22se123585 0.0 10142041
19:00+18wnw25485 0.0 1014261
22:00+12ene22645 0.0 101740
17 april, sat
sat1701:00+10e5115148 0.0 1019397
04:00+6e411477 0.0 1020362
07:00+4e365917 0.0 1021187
10:00+11e35405 0.0 1022522
13:00+18se123281 0.0 10201171
16:00+19w2231100 0.0 10191669
19:00+15w2355100 0.0 1020142
22:00+10nw0067100 0.0 102218